Odiham, United Kingdom

3:50 PM BST on August 25, 2016 (GMT +0100)
Odiham Air Base

Weather History for EGVO - October, 2013

Change the Weather History Date:

Thursday, October 10, 2013

  Actual Average (EGUB) Record (EGUB)
Temperature  
Mean Temperature 46 °F -  
Max Temperature 51 °F 59 °F 71 °F (2005)
Min Temperature 42 °F 45 °F 38 °F (2015)
Degree Days  
Heating Degree Days 18    
Moisture  
Dew Point 36 °F    
Average Humidity 65    
Maximum Humidity 81    
Minimum Humidity 41    
Precipitation  
Precipitation 0.00 in - - ()
Sea Level Pressure  
Sea Level Pressure 30.09 in    
Wind  
Wind Speed 13 mph ()    
Max Wind Speed 23 mph    
Max Gust Speed 26 mph    
Visibility 6.2 miles    
Events      
Averages and records for this station are not official NWS values.
T = Trace of Precipitation, MM = Missing Value Source: Averaged Metar Reports

Daily Weather History Graph

Daily Weather History Graph

Search for Another Location

Airport or City:

Trip Planner

Search our weather history database for the weather conditions in past years. The results will help you decide how hot, cold, wet, or windy it might be!

Date:

Astronomy

Oct. 10, 2013 Rise Set
Actual Time 7:19 AM BST 6:21 PM BST
Civil Twilight 6:45 AM BST 6:54 PM BST
Nautical Twilight 6:07 AM BST 7:32 PM BST
Astronomical Twilight 5:28 AM BST 8:11 PM BST
Moon 1:24 PM BST (10/10) 10:17 PM BST (10/10)
Length of Visible Light 12h 08m
Length of Day
11h 02m
Waxing Crescent, 33% of the Moon is Illuminated
Oct 10
Waxing Crescent
Oct 12
First Quarter
Oct 19
Full
Oct 27
Last Quarter
Nov 3
New

Hourly Weather History & Observations

Time (BST) Temp. Windchill Dew Point Humidity Pressure Visibility Wind Dir Wind Speed Gust Speed Precip Events Conditions
12:50 AM 44 °F - 36 °F 66% 30.06 in 22 mi WNW 12.7 mph - -  
12:50 AM 44.6 °F 38.4 °F 37.4 °F 76% 30.04 in - WNW 12.7 mph - N/A   Clear
1:50 AM 42.8 °F 37.0 °F 37.4 °F 81% 30.04 in - WNW 10.4 mph - N/A   Clear
2:50 AM 42.8 °F 35.8 °F 37.4 °F 81% 30.04 in - WNW 13.8 mph - N/A   Clear
3:50 AM 44 °F - 38 °F 73% 30.06 in 25 mi NW 11.5 mph - -   Mostly Cloudy
3:50 AM 44.6 °F 38.8 °F 37.4 °F 76% 30.04 in 6.2 mi NW 11.5 mph - N/A   Mostly Cloudy
4:50 AM 44.6 °F 38.8 °F 35.6 °F 71% 30.04 in 6.2 mi NW 11.5 mph - N/A   Mostly Cloudy
5:50 AM 42.8 °F 37.0 °F 35.6 °F 76% 30.04 in 6.2 mi NW 10.4 mph - N/A   Partly Cloudy
6:50 AM 44 °F - 35 °F 60% 30.09 in 37 mi NW 15.0 mph - -   Mostly Cloudy
6:50 AM 42.8 °F 35.4 °F 35.6 °F 76% 30.06 in 6.2 mi NW 15.0 mph - N/A   Mostly Cloudy
7:50 AM 42.8 °F 35.1 °F 33.8 °F 70% 30.06 in 6.2 mi NW 16.1 mph - N/A   Partly Cloudy
8:50 AM 44.6 °F 37.4 °F 33.8 °F 66% 30.09 in 6.2 mi NNW 16.1 mph - N/A   Partly Cloudy
9:50 AM 46 °F - 34 °F 53% 30.13 in 31 mi NNW 18.4 mph - -   Scattered Clouds
9:50 AM 46.4 °F 39.2 °F 33.8 °F 62% 30.09 in 6.2 mi NNW 18.4 mph - N/A   Partly Cloudy
10:50 AM 48.2 °F - 35.6 °F 62% 30.12 in 6.2 mi NNW 18.4 mph - N/A   Partly Cloudy
11:50 AM 50.0 °F - 33.8 °F 54% 30.12 in 6.2 mi NNW 21.9 mph - N/A   Scattered Clouds
12:50 PM 51 °F - 35 °F 41% 30.15 in 25 mi NNW 23.0 mph - -   Partly Cloudy
12:50 PM 51.8 °F - 33.8 °F 50% 30.12 in 6.2 mi NNW 23.0 mph - N/A   Scattered Clouds
1:50 PM 51.8 °F - 35.6 °F 54% 30.12 in 6.2 mi NNW 18.4 mph - N/A   Mostly Cloudy
2:50 PM 50.0 °F - 35.6 °F 58% 30.12 in 6.2 mi NNW 15.0 mph - N/A   Mostly Cloudy
3:50 PM 51 °F - 36 °F 45% 30.14 in 22 mi NW 18.4 mph - -   Mostly Cloudy
3:50 PM 51.8 °F - 35.6 °F 54% 30.12 in 6.2 mi NW 18.4 mph - N/A   Mostly Cloudy
4:50 PM 51.8 °F - 37.4 °F 58% 30.12 in 6.2 mi NW 18.4 mph - N/A   Mostly Cloudy
5:50 PM 50.0 °F - 37.4 °F 62% 30.12 in 6.2 mi NNW 16.1 mph - N/A   Partly Cloudy
6:50 PM 48.2 °F - 37.4 °F 66% 30.12 in 6.2 mi NW 12.7 mph - N/A   Mostly Cloudy
7:50 PM 48.2 °F - 35.6 °F 62% 30.12 in - NNW 15.0 mph - N/A   Clear
8:50 PM 46.4 °F 40.1 °F 37.4 °F 71% 30.12 in 6.2 mi NNW 15.0 mph 26.5 mph N/A   Scattered Clouds
9:50 PM 46 °F - 38 °F 65% 30.15 in 28 mi NNW 12.7 mph - -   Mostly Cloudy
9:50 PM 46.4 °F 40.7 °F 37.4 °F 71% 30.12 in 6.2 mi NNW 12.7 mph - N/A   Scattered Clouds
10:50 PM 46.4 °F 39.5 °F 37.4 °F 71% 30.09 in 6.2 mi NNW 17.3 mph - N/A   Mostly Cloudy
11:50 PM 46.4 °F 40.1 °F 37.4 °F 71% 30.09 in 6.2 mi NNW 15.0 mph 26.5 mph N/A   Mostly Cloudy